Hourly Weather Sheluhi

Today, 20 January, Wednesday

Time Temperature Precipitation Wind Pressure Humidity
00:00 -19°C° 0 mm 2 mps 745 mmHg 96%
01:00 -19°C° 0 mm 2 mps 745 mmHg 96%
02:00 -20°C° 0 mm 2 mps 746 mmHg 96%
03:00 -20°C° 0 mm 2 mps 745 mmHg 96%
04:00 -20°C° 0 mm 2 mps 745 mmHg 96%
05:00 -20°C° 0 mm 2 mps 745 mmHg 96%
06:00 -20°C° 0 mm 2 mps 745 mmHg 96%
07:00 -22°C° 0 mm 3 mps 745 mmHg 96%
08:00 -23°C° 0 mm 3 mps 745 mmHg 96%
09:00 -21°C° 0 mm 3 mps 745 mmHg 95%
10:00 -20°C° 0 mm 4 mps 745 mmHg 93%
11:00 -19°C° 0 mm 4 mps 746 mmHg 92%
12:00 -18°C° 0 mm 4 mps 745 mmHg 91%
13:00 -17°C° 0 mm 4 mps 745 mmHg 90%
14:00 -17°C° 0 mm 4 mps 745 mmHg 90%
15:00 -17°C° 0 mm 4 mps 744 mmHg 90%
16:00 -18°C° 0 mm 5 mps 744 mmHg 90%
17:00 -18°C° 0 mm 5 mps 744 mmHg 90%
18:00 -18°C° 0 mm 5 mps 744 mmHg 91%
19:00 -18°C° 0 mm 5 mps 743 mmHg 91%
20:00 -17°C° 0 mm 6 mps 743 mmHg 92%
21:00 -17°C° 0 mm 6 mps 743 mmHg 92%
22:00 -16°C° 0 mm 6 mps 742 mmHg 92%
23:00 -16°C° 0 mm 6 mps 742 mmHg 92%

Tomorrow, 21 January, Thursday

Time Temperature Precipitation Wind Pressure Humidity
00:00 -15°C° 0.1 mm 6 mps 741 mmHg 93%
01:00 -14°C° 0.1 mm 6 mps 741 mmHg 93%
02:00 -14°C° 0.1 mm 7 mps 741 mmHg 93%
03:00 -12°C° 0.3 mm 6 mps 740 mmHg 93%
04:00 -12°C° 0.3 mm 6 mps 739 mmHg 93%
05:00 -11°C° 0.3 mm 6 mps 739 mmHg 94%
06:00 -10°C° 0.4 mm 6 mps 739 mmHg 93%
07:00 -10°C° 0.4 mm 6 mps 739 mmHg 93%
08:00 -9°C° 0.4 mm 6 mps 739 mmHg 92%
09:00 -6°C° 0 mm 6 mps 738 mmHg 93%
10:00 -5°C° 0 mm 6 mps 738 mmHg 94%
11:00 -4°C° 0 mm 5 mps 738 mmHg 94%
12:00 -2°C° 0 mm 5 mps 738 mmHg 96%
13:00 -2°C° 0 mm 5 mps 738 mmHg 97%
14:00 -1°C° 0 mm 5 mps 738 mmHg 98%
15:00 -1°C° 0.1 mm 5 mps 738 mmHg 98%
16:00 -1°C° 0.1 mm 5 mps 738 mmHg 97%
17:00 -1°C° 0.1 mm 5 mps 738 mmHg 96%
18:00 -1°C° 0 mm 5 mps 738 mmHg 96%
19:00 -1°C° 0 mm 5 mps 738 mmHg 96%
20:00 -1°C° 0 mm 5 mps 738 mmHg 96%
21:00 -1°C° 0 mm 5 mps 738 mmHg 95%
22:00 -1°C° 0 mm 5 mps 738 mmHg 95%
23:00 -2°C° 0 mm 5 mps 738 mmHg 94%

Day after tomorrow, 22 January, Friday

Time Temperature Precipitation Wind Pressure Humidity
00:00 -1°C° 0 mm 5 mps 738 mmHg 95%
01:00 -1°C° 0 mm 5 mps 738 mmHg 95%
02:00 -1°C° 0 mm 5 mps 738 mmHg 95%
03:00 -2°C° 0 mm 5 mps 738 mmHg 94%
04:00 -2°C° 0 mm 5 mps 737 mmHg 94%
05:00 -4°C° 0 mm 5 mps 737 mmHg 94%
06:00 -4°C° 0 mm 5 mps 737 mmHg 94%
07:00 -4°C° 0 mm 5 mps 737 mmHg 94%
08:00 -4°C° 0 mm 4 mps 736 mmHg 94%
09:00 -4°C° 0 mm 5 mps 736 mmHg 96%
10:00 -2°C° 0 mm 5 mps 736 mmHg 97%
11:00 -1°C° 0 mm 5 mps 736 mmHg 99%
12:00 -1°C° 0 mm 5 mps 735 mmHg 99%
13:00 -1°C° 0 mm 4 mps 735 mmHg 99%
14:00 -1°C° 0 mm 4 mps 735 mmHg 99%
15:00 -1°C° 0 mm 4 mps 735 mmHg 99%
16:00 -1°C° 0 mm 4 mps 734 mmHg 98%
17:00 -1°C° 0 mm 4 mps 734 mmHg 97%
18:00 -1°C° 0 mm 4 mps 734 mmHg 97%
19:00 -1°C° 0 mm 4 mps 734 mmHg 97%
20:00 -1°C° 0 mm 4 mps 734 mmHg 96%
21:00 -1°C° 0 mm 5 mps 734 mmHg 96%
22:00 -1°C° 0 mm 5 mps 734 mmHg 95%
23:00 -1°C° 0 mm 5 mps 734 mmHg 95%

23 January, Saturday

Time Temperature Precipitation Wind Pressure Humidity
00:00 -1°C° 0 mm 5 mps 734 mmHg 96%
01:00 -1°C° 0 mm 5 mps 734 mmHg 96%
02:00 -1°C° 0 mm 5 mps 734 mmHg 97%
03:00 -1°C° 0 mm 5 mps 734 mmHg 97%
04:00 -1°C° 0 mm 4 mps 734 mmHg 97%
05:00 -1°C° 0 mm 4 mps 734 mmHg 98%
06:00 -1°C° 0 mm 4 mps 734 mmHg 97%
07:00 -1°C° 0 mm 4 mps 735 mmHg 97%
08:00 0°C° 0 mm 3 mps 735 mmHg 97%
09:00 0°C° 0.1 mm 3 mps 735 mmHg 98%
10:00 +1°C° 0.1 mm 2 mps 736 mmHg 98%
11:00 +1°C° 0.1 mm 2 mps 736 mmHg 99%
12:00 +1°C° 0 mm 2 mps 736 mmHg 99%
13:00 +1°C° 0 mm 2 mps 736 mmHg 99%
14:00 +1°C° 0 mm 2 mps 736 mmHg 99%
15:00 +1°C° 0 mm 2 mps 736 mmHg 99%
16:00 +1°C° 0 mm 2 mps 736 mmHg 99%
17:00 0°C° 0 mm 3 mps 736 mmHg 98%
18:00 0°C° 0 mm 3 mps 736 mmHg 98%
19:00 0°C° 0 mm 3 mps 736 mmHg 98%
20:00 0°C° 0 mm 3 mps 736 mmHg 98%
21:00 -1°C° 0 mm 4 mps 735 mmHg 98%
22:00 -1°C° 0 mm 4 mps 735 mmHg 97%
23:00 -1°C° 0 mm 5 mps 735 mmHg 97%

24 January, Sunday

Time Temperature Precipitation Wind Pressure Humidity
00:00 -1°C° 0 mm 5 mps 734 mmHg 96%
01:00 -3°C° 0 mm 6 mps 734 mmHg 95%
02:00 -3°C° 0 mm 6 mps 734 mmHg 93%
03:00 -3°C° 0 mm 6 mps 733 mmHg 94%
04:00 -3°C° 0 mm 7 mps 733 mmHg 95%
05:00 -2°C° 0 mm 7 mps 732 mmHg 96%
06:00 -2°C° 0 mm 7 mps 732 mmHg 97%
07:00 -2°C° 0 mm 7 mps 732 mmHg 98%
08:00 -2°C° 0 mm 7 mps 731 mmHg 98%
09:00 -1°C° 0.1 mm 6 mps 731 mmHg 98%
10:00 0°C° 0.1 mm 5 mps 731 mmHg 99%
11:00 0°C° 0.1 mm 5 mps 730 mmHg 99%
12:00 0°C° 0.5 mm 5 mps 730 mmHg 99%
13:00 0°C° 0.5 mm 5 mps 729 mmHg 99%
14:00 0°C° 0.5 mm 5 mps 729 mmHg 99%
15:00 0°C° 0.4 mm 5 mps 729 mmHg 99%
16:00 0°C° 0.4 mm 5 mps 729 mmHg 99%
17:00 0°C° 0.4 mm 5 mps 729 mmHg 99%
18:00 0°C° 0.4 mm 4 mps 728 mmHg 99%
19:00 +1°C° 0.4 mm 3 mps 728 mmHg 99%
20:00 +1°C° 0.4 mm 3 mps 728 mmHg 99%
21:00 +1°C° 0.9 mm 2 mps 729 mmHg 99%
22:00 +1°C° 0.9 mm 2 mps 729 mmHg 99%
23:00 +1°C° 0.9 mm 2 mps 729 mmHg 99%

25 January, Monday

Time Temperature Precipitation Wind Pressure Humidity
00:00 0°C° 0.5 mm 3 mps 729 mmHg 98%
01:00 -1°C° 0.5 mm 4 mps 730 mmHg 98%
02:00 -2°C° 0.5 mm 5 mps 730 mmHg 97%
03:00 -2°C° 0 mm 4 mps 730 mmHg 96%
04:00 -2°C° 0 mm 4 mps 731 mmHg 95%
05:00 -2°C° 0 mm 4 mps 731 mmHg 95%
06:00 -3°C° 0.1 mm 4 mps 732 mmHg 95%
07:00 -3°C° 0.1 mm 4 mps 733 mmHg 95%
08:00 -3°C° 0.1 mm 4 mps 734 mmHg 95%
09:00 -3°C° 0 mm 4 mps 734 mmHg 94%
10:00 -3°C° 0 mm 4 mps 735 mmHg 94%
11:00 -2°C° 0 mm 4 mps 736 mmHg 94%
12:00 -1°C° 0 mm 3 mps 736 mmHg 94%
13:00 -1°C° 0 mm 3 mps 737 mmHg 94%
14:00 -1°C° 0 mm 2 mps 737 mmHg 94%
15:00 0°C° 0 mm 1 mps 737 mmHg 94%
16:00 0°C° 0 mm 1 mps 737 mmHg 94%
17:00 0°C° 0 mm 1 mps 738 mmHg 94%
18:00 0°C° 0 mm 1 mps 738 mmHg 94%
19:00 0°C° 0 mm 1 mps 738 mmHg 93%
20:00 0°C° 0 mm 1 mps 738 mmHg 93%
21:00 -2°C° 0 mm 2 mps 738 mmHg 92%
22:00 -2°C° 0 mm 2 mps 738 mmHg 92%
23:00 -2°C° 0 mm 3 mps 738 mmHg 91%
Show more